Find Starlink 1152

NORAD ID: 45096 Int'l Des: 2020-006 Owner: SPXS Country: US Constellation: starlink operational
LEOCIRCULAR

Live-Position

3D-Globus wird geladen...

Über Starlink 1152

Beschreibung wird geladen...

Nächste Überflüge

Passes for default location (London). Set your location on the main map for personalized predictions.

Höhenverlauf

Loading altitude history...

Zweizeiliger Elementsatz

1 45096U 20006BE 26132.61975734 .00049455 00000-0 10003-2 0 9991
2 45096 53.0353 263.1488 0002263 8.6429 351.4615 15.45988406347457
Epoch: 12. Mai 2026 • Age: 10 hours

Aktueller Status

Höhe 434.5 km
Geschwindigkeit 7.66 km/s
Subsatellitenpunkt 53.00°N, 105.49°E
Startdatum 29. Jan. 2020
Alter 6.2 years
Typ internet

Technische Details

Klassifizierung Payload
Masse 260.00 kg
Trockenmasse 248.00 kg
Gesamtmasse 260.00 kg
Länge 0.20 m
Durchmesser 2.80 m
Spannweite 9.00 m
Form Box + pan
Hersteller SPXS
Bus-Typ Starlink
Phasenstatus In Orbit
Besitzer/Staat SPXS/US

Most Searched